Location: Lafig�re
(44.4503°N, 4.0357°E)
Time: 15:27:14
(UTC+00:00)

Transit 2A Rocket - Pass Details

Date: 21 January 2021
Orbit: 594 x 908 km, 66.7° (Epoch: 06 March)

Event Time Altitude Azimuth Distance (km) Brightness Sun altitude
Rises 21:44:34 0° 323° (NW) 2,911 - -53.3°
Reaches altitude 10° 21:46:56 10° 317° (NW) 1,972 - -53.6°
Maximum altitude 21:51:08 46° 244° (WSW) 801 - -54.3°
Drops below altitude 10° 21:55:14 10° 171° (S) 1,921 - -54.9°
Sets 21:57:31 0° 165° (SSE) 2,827 - -55.2°
